Terminal Aerodrome Forecast
Issued by NWS Charleston, WV

Current Version | Previous Version | Graphics & Text | Print | Product List | Glossary On
Versions: 1 2 3 4 5 6 7 8 9 10 11 12 13 14 15 16 17 18 19 20 21 22 23 24
000
FTUS41 KRLX 292339
TAFHTS
TAF
KHTS 292339Z 3000/3024 19007KT P6SM VCTS BKN045CB
      TEMPO 3000/3002 3SM TSRA BKN035CB
     FM300600 21004KT 6SM BR BKN025
     FM300800 21004KT 4SM BR BKN025
     FM301300 22005KT P6SM BKN030
     FM301600 23006KT P6SM VCTS BKN040CB=

USA.gov is the U.S. government's official web portal to all federal, state and local government web resources and services.